Location: Newark
(52.3500°N, 175.9667°E)
Time: 05:16:56
(UTC+00:00)

S-56A Canister/Altair - Pass Details

Date: 21 April 2021
Orbit: 631 x 2501 km, 38.9° (Epoch: 12 May)

Event Time Altitude Azimuth Distance (km) Brightness Sun altitude
Rises 15:18:52 0° 256° (WSW) 3,463 - -14.4°
Reaches altitude 10° 15:23:23 10° 225° (SW) 2,229 - -13.9°
Maximum altitude 15:25:01 12° 205° (SSW) 2,044 - -13.7°
Drops below altitude 10° 15:26:35 10° 185° (S) 2,084 - -13.6°
Exits shadow 15:26:53 - 182° (S) 2,115 9.4 -13.5°
Sets 15:30:22 0° 151° (SSE) 2,909 10.4 -13.1°
